| time (UTC) | temp F | wind direction | speed MPH | gust MPH | rain 1hr in | rain 24hr in | rain mn in | humidity % | barometer mb |
| 20260506143039 | 65 | 226 | 2.0 | 8.0 | 0.00 | 0.00 | 0.00 | 78 | 1006.7 |
| 20260506141541 | 65 | 153 | 4.0 | 10.0 | 0.00 | 0.00 | 0.00 | 77 | 1006.6 |
| 20260506140034 | 65 | 234 | 4.0 | 8.0 | 0.00 | 0.00 | 0.00 | 78 | 1006.7 |
| 20260506134532 | 64 | 219 | 0.0 | 4.0 | 0.00 | 0.00 | 0.00 | 79 | 1006.4 |
| 20260506133034 | 64 | 178 | 3.0 | 8.0 | 0.00 | 0.00 | 0.00 | 78 | 1006.3 |
| 20260506131531 | 64 | 218 | 1.0 | 9.0 | 0.00 | 0.00 | 0.00 | 80 | 1006.3 |
| 20260506130033 | 63 | 262 | 1.0 | 9.0 | 0.00 | 0.00 | 0.00 | 80 | 1006.3 |
| 20260506124531 | 63 | 269 | 3.0 | 7.0 | 0.00 | 0.00 | 0.00 | 81 | 1006.8 |
| 20260506123030 | 63 | 217 | 1.0 | 10.0 | 0.00 | 0.00 | 0.00 | 81 | 1006.8 |
| 20260506121530 | 62 | 227 | 4.0 | 9.0 | 0.00 | 0.00 | 0.00 | 81 | 1007.1 |
| 20260506120048 | 62 | 243 | 2.0 | 10.0 | 0.00 | 0.00 | 0.00 | 82 | 1007.0 |
| 20260506114532 | 61 | 218 | 3.0 | 11.0 | 0.00 | 0.00 | 0.00 | 81 | 1006.9 |
| 20260506113026 | 61 | 184 | 3.0 | 10.0 | 0.00 | 0.00 | 0.00 | 81 | 1006.8 |
| 20260506111526 | 61 | 223 | 4.0 | 11.0 | 0.00 | 0.00 | 0.00 | 81 | 1006.8 |
| 20260506110029 | 61 | 184 | 2.0 | 7.0 | 0.00 | 0.00 | 0.00 | 80 | 1006.8 |
| 20260506104536 | 61 | 176 | 1.0 | 9.0 | 0.00 | 0.00 | 0.00 | 80 | 1006.8 |
| 20260506103037 | 61 | 164 | 3.0 | 11.0 | 0.00 | 0.00 | 0.00 | 79 | 1006.9 |
| 20260506101522 | 61 | 210 | 2.0 | 8.0 | 0.00 | 0.00 | 0.00 | 79 | 1006.7 |
| 20260506100022 | 61 | 259 | 2.0 | 8.0 | 0.00 | 0.00 | 0.00 | 79 | 1006.6 |
| 20260506094519 | 61 | 224 | 2.0 | 9.0 | 0.00 | 0.00 | 0.00 | 78 | 1006.3 |
| 20260506093022 | 61 | 155 | 1.0 | 5.0 | 0.00 | 0.00 | 0.00 | 77 | 1006.4 |
| 20260506091518 | 61 | 190 | 2.0 | 7.0 | 0.00 | 0.00 | 0.00 | 76 | 1006.2 |
| 20260506090015 | 62 | 242 | 3.0 | 8.0 | 0.00 | 0.00 | 0.00 | 75 | 1006.5 |
| 20260506084528 | 62 | 238 | 0.0 | 9.0 | 0.00 | 0.00 | 0.00 | 73 | 1006.6 |
| 20260506083014 | 62 | 174 | 0.0 | 5.0 | 0.00 | 0.00 | 0.00 | 73 | 1006.6 |
| 20260506081515 | 61 | 269 | 2.0 | 6.0 | 0.00 | 0.00 | 0.00 | 76 | 1006.5 |
| 20260506073007 | 62 | 231 | 0.0 | 3.0 | 0.00 | 0.00 | 0.00 | 74 | 1006.7 |
| 20260506071503 | 62 | 210 | 0.0 | 5.0 | 0.00 | 0.00 | 0.00 | 74 | 1006.8 |
| 20260506061556 | 64 | 144 | 1.0 | 6.0 | 0.00 | 0.00 | 0.00 | 69 | 1007.1 |
| 20260506044542 | 67 | 323 | 0.0 | 3.0 | 0.00 | 0.00 | 0.00 | 62 | 1007.3 |
| 20260506043044 | 67 | 134 | 1.0 | 7.0 | 0.00 | 0.00 | 0.00 | 61 | 1007.0 |
| 20260506041537 | 68 | 229 | 1.0 | 5.0 | 0.00 | 0.00 | 0.00 | 59 | 1007.0 |
| 20260506040037 | 68 | 155 | 2.0 | 8.0 | 0.00 | 0.00 | 0.00 | 58 | 1006.9 |
| 20260506034534 | 69 | 144 | 0.0 | 4.0 | 0.00 | 0.00 | 0.00 | 56 | 1006.8 |
| 20260506033033 | 70 | 329 | 0.0 | 6.0 | 0.00 | 0.00 | 0.00 | 54 | 1006.9 |
| 20260506031540 | 70 | 148 | 3.0 | 10.0 | 0.00 | 0.00 | 0.00 | 52 | 1006.8 |
| 20260506030032 | 70 | 171 | 1.0 | 10.0 | 0.00 | 0.00 | 0.00 | 53 | 1006.8 |
| 20260506024536 | 70 | 213 | 0.0 | 4.0 | 0.00 | 0.00 | 0.00 | 54 | 1006.7 |
| 20260506023050 | 70 | 183 | 1.0 | 6.0 | 0.00 | 0.00 | 0.00 | 55 | 1006.9 |
| 20260506021555 | 70 | 172 | 1.0 | 10.0 | 0.00 | 0.00 | 0.00 | 54 | 1006.9 |
| 20260506020030 | 70 | 198 | 1.0 | 10.0 | 0.00 | 0.00 | 0.00 | 54 | 1006.9 |
| 20260506014529 | 71 | 222 | 3.0 | 7.0 | 0.00 | 0.00 | 0.00 | 54 | 1006.7 |
| 20260506013034 | 71 | 205 | 2.0 | 7.0 | 0.00 | 0.00 | 0.00 | 54 | 1006.6 |
| 20260506011529 | 71 | 219 | 2.0 | 4.0 | 0.00 | 0.00 | 0.00 | 53 | 1006.5 |
| 20260506010029 | 72 | 222 | 1.0 | 11.0 | 0.00 | 0.00 | 0.00 | 53 | 1006.3 |
| 20260506004529 | 72 | 247 | 0.0 | 10.0 | 0.00 | 0.00 | 0.00 | 53 | 1006.1 |
| 20260506003027 | 73 | 211 | 1.0 | 4.0 | 0.00 | 0.00 | 0.00 | 51 | 1005.9 |
| 20260506001526 | 74 | 221 | 1.0 | 8.0 | 0.00 | 0.00 | 0.00 | 50 | 1005.7 |
| 20260506000026 | 74 | 232 | 2.0 | 5.0 | 0.00 | 0.00 | 0.00 | 49 | 1005.5 |
| 20260505234526 | 74 | 193 | 0.0 | 3.0 | 0.00 | 0.00 | 0.00 | 48 | 1005.4 |
| 20260505233027 | 75 | 169 | 1.0 | 5.0 | 0.00 | 0.00 | 0.00 | 46 | 1005.1 |
| 20260505231538 | 75 | 225 | 2.0 | 11.0 | 0.00 | 0.00 | 0.00 | 45 | 1004.9 |
| 20260505230026 | 76 | 227 | 6.0 | 14.0 | 0.00 | 0.00 | 0.00 | 44 | 1004.6 |
| 20260505224523 | 76 | 213 | 3.0 | 9.0 | 0.00 | 0.00 | 0.00 | 44 | 1004.4 |
| 20260505223023 | 77 | 261 | 3.0 | 17.0 | 0.00 | 0.00 | 0.00 | 44 | 1004.3 |
| 20260505221523 | 77 | 163 | 3.0 | 12.0 | 0.00 | 0.00 | 0.00 | 44 | 1004.1 |
| 20260505220024 | 78 | 261 | 4.0 | 14.0 | 0.00 | 0.00 | 0.00 | 42 | 1004.0 |
| 20260505214522 | 79 | 209 | 4.0 | 11.0 | 0.00 | 0.00 | 0.00 | 41 | 1003.9 |
| 20260505213033 | 80 | 305 | 7.0 | 25.0 | 0.00 | 0.00 | 0.00 | 33 | 1003.7 |
| 20260505211520 | 80 | 225 | 3.0 | 14.0 | 0.00 | 0.00 | 0.00 | 36 | 1003.7 |
| 20260505210019 | 80 | 241 | 6.0 | 20.0 | 0.00 | 0.00 | 0.00 | 36 | 1003.6 |
| 20260505204519 | 83 | 209 | 7.0 | 25.0 | 0.00 | 0.00 | 0.00 | 34 | 1003.8 |
| 20260505203028 | 82 | 297 | 8.0 | 19.0 | 0.00 | 0.00 | 0.00 | 32 | 1003.9 |
| 20260505201529 | 82 | 175 | 8.0 | 25.0 | 0.00 | 0.00 | 0.00 | 32 | 1003.7 |
| 20260505200015 | 82 | 190 | 11.0 | 29.0 | 0.00 | 0.00 | 0.00 | 32 | 1003.7 |
| 20260505194513 | 83 | 332 | 6.0 | 20.0 | 0.00 | 0.00 | 0.00 | 32 | 1004.0 |
| 20260505193011 | 82 | 236 | 8.0 | 25.0 | 0.00 | 0.00 | 0.00 | 33 | 1004.1 |
| 20260505191512 | 82 | 306 | 10.0 | 20.0 | 0.00 | 0.00 | 0.00 | 33 | 1004.2 |
| 20260505190011 | 81 | 277 | 6.0 | 18.0 | 0.00 | 0.00 | 0.00 | 36 | 1004.3 |
| 20260505184504 | 81 | 360 | 6.0 | 14.0 | 0.00 | 0.00 | 0.00 | 37 | 1004.8 |
| 20260505183002 | 81 | 247 | 4.0 | 14.0 | 0.00 | 0.00 | 0.00 | 38 | 1005.0 |
| 20260505181559 | 80 | 258 | 5.0 | 15.0 | 0.00 | 0.00 | 0.00 | 41 | 1004.9 |
| 20260505174559 | 81 | 208 | 4.0 | 16.0 | 0.00 | 0.00 | 0.00 | 40 | 1005.2 |
| 20260505173057 | 80 | 113 | 5.0 | 21.0 | 0.00 | 0.00 | 0.00 | 43 | 1005.4 |
| 20260505171551 | 80 | 202 | 8.0 | 21.0 | 0.00 | 0.00 | 0.00 | 41 | 1005.3 |
| 20260505170104 | 79 | 213 | 2.0 | 11.0 | 0.00 | 0.00 | 0.00 | 43 | 1005.6 |
| 20260505164547 | 79 | 148 | 4.0 | 17.0 | 0.00 | 0.00 | 0.00 | 44 | 1005.9 |
| 20260505163042 | 78 | 109 | 5.0 | 15.0 | 0.00 | 0.00 | 0.00 | 45 | 1006.1 |
| 20260505161538 | 77 | 218 | 4.0 | 13.0 | 0.00 | 0.00 | 0.00 | 45 | 1006.4 |
| 20260505153031 | 78 | 219 | 3.0 | 14.0 | 0.00 | 0.00 | 0.00 | 46 | 1006.8 |
| 20260505151536 | 77 | 221 | 4.0 | 16.0 | 0.00 | 0.00 | 0.00 | 48 | 1007.2 |